CW9648 Weather Reports


Display with metric or nautical units.
time (UTC)temp
F
wind
direction
speed
MPH
gust
MPH
rain 1hr
in
rain 24hr
in
rain mn
in
humidity
%
barometer
mb
20260901070024 78 0 0.0 0.0 0.00 0.00 0.00 74 1017.1
20260901065503 78 0 0.0 0.0 0.00 0.00 0.00 74 1017.2
20260901065003 79 0 0.0 0.0 0.00 0.00 0.00 74 1017.3
20260901064503 79 0 0.0 0.0 0.00 0.00 0.00 75 1017.3
20260901064003 79 0 0.0 0.0 0.00 0.00 0.00 75 1017.4
20260901063524 79 0 0.0 0.0 0.00 0.00 0.00 75 1017.5
20260901063003 79 0 0.0 0.0 0.00 0.00 0.00 75 1017.3
20260901062503 79 0 0.0 0.0 0.00 0.00 0.00 76 1017.3
20260901062003 79 0 0.0 0.0 0.00 0.00 0.00 76 1017.4
20260901061503 79 0 0.0 0.0 0.00 0.00 0.00 76 1017.4
20260901061003 79 0 0.0 0.0 0.00 0.00 0.00 76 1017.3
20260901060524 79 0 0.0 0.0 0.00 0.00 0.00 77 1017.2
20260901060024 80 0 0.0 0.0 0.00 0.00 0.00 77 1017.3
20260901055503 80 0 0.0 0.0 0.00 0.00 0.00 77 1017.3
20260901055024 80 0 0.0 0.0 0.00 0.00 0.00 78 1017.3
20260901054504 80 0 0.0 0.0 0.00 0.00 0.00 78 1017.3
20260901054003 80 0 0.0 0.0 0.00 0.00 0.00 78 1017.2
20260901053503 80 0 0.0 0.0 0.00 0.00 0.00 78 1017.2
20260901053003 80 0 0.0 0.0 0.00 0.00 0.00 78 1017.2
20260901052503 81 0 0.0 0.0 0.00 0.00 0.00 78 1017.3
20260901052004 81 0 0.0 0.0 0.00 0.00 0.00 78 1017.1
20260901051503 81 0 0.0 0.0 0.00 0.00 0.00 78 1017.1
20260901051003 81 0 0.0 0.0 0.00 0.00 0.00 78 1017.2
20260901050503 81 0 0.0 0.0 0.00 0.00 0.00 78 1017.1
20260901050003 82 0 0.0 0.0 0.00 0.00 0.00 78 1017.1
20260901045524 82 0 0.0 0.0 0.00 0.00 0.00 78 1017.0
20260901045003 82 0 0.0 0.0 0.00 0.00 0.00 78 1017.0
20260901044505 82 0 0.0 0.0 0.00 0.00 0.00 77 1017.0
20260901044024 82 0 0.0 0.0 0.00 0.00 0.00 77 1016.9
20260901043503 82 0 0.0 0.0 0.00 0.00 0.00 77 1016.9
20260901043003 82 0 0.0 0.0 0.00 0.00 0.00 77 1016.9
20260901042503 83 0 0.0 0.0 0.00 0.00 0.00 77 1016.9
20260901042003 83 0 0.0 0.0 0.00 0.00 0.00 77 1016.9
20260901041503 83 0 0.0 0.0 0.00 0.00 0.00 77 1016.8
20260901041003 83 0 0.0 0.0 0.00 0.00 0.00 77 1016.8
20260901040503 83 155 0.0 1.0 0.00 0.00 0.00 76 1016.8
20260901040024 83 158 0.0 5.0 0.00 0.00 0.00 76 1016.8
20260901035503 83 161 0.0 5.0 0.00 0.00 0.00 76 1016.7
20260901035003 84 196 0.0 3.0 0.00 0.00 0.00 76 1016.5
20260901034504 84 0 0.0 0.0 0.00 0.00 0.00 75 1016.6
20260901034003 84 95 0.0 1.0 0.00 0.00 0.00 74 1016.6
20260901033503 84 104 0.0 2.0 0.00 0.00 0.00 74 1016.7
20260901033003 84 125 0.0 2.0 0.00 0.00 0.00 74 1016.5
20260901032503 84 158 0.0 2.0 0.00 0.00 0.00 74 1016.5
20260901032003 84 157 0.0 2.0 0.00 0.00 0.00 74 1016.4
20260901031524 84 170 0.0 2.0 0.00 0.00 0.00 74 1016.4
20260901031003 84 170 0.0 3.0 0.00 0.00 0.00 73 1016.4
20260901030503 84 150 0.0 3.0 0.00 0.00 0.00 74 1016.3
20260901030025 84 138 0.0 3.0 0.00 0.00 0.00 73 1016.2
20260901025503 84 136 0.0 2.0 0.00 0.00 0.00 72 1016.1
20260901025024 84 0 0.0 0.0 0.00 0.00 0.00 72 1016.1
20260901024503 84 0 0.0 0.0 0.00 0.00 0.00 70 1016.0
20260901024024 84 0 0.0 0.0 0.00 0.00 0.00 71 1015.9
20260901023503 84 0 0.0 0.0 0.00 0.00 0.00 69 1015.9
20260901023003 85 0 0.0 0.0 0.00 0.00 0.00 69 1015.8
20260901022503 85 0 0.0 0.0 0.00 0.00 0.00 70 1015.8
20260901022003 85 360 0.0 1.0 0.00 0.00 0.00 70 1015.7
20260901021503 85 2 0.0 2.0 0.00 0.00 0.00 70 1015.6
20260901021024 85 13 1.0 3.0 0.00 0.00 0.00 71 1015.6
20260901020503 85 12 1.0 3.0 0.00 0.00 0.00 71 1015.4
20260901020003 86 7 0.0 2.0 0.00 0.00 0.00 70 1015.5
20260901015503 86 204 0.0 1.0 0.00 0.00 0.00 65 1015.3
20260901015003 87 358 0.0 1.0 0.00 0.00 0.00 65 1015.3
20260901014503 87 0 0.0 0.0 0.00 0.00 0.00 64 1015.1
20260901014003 87 0 0.0 0.0 0.00 0.00 0.00 63 1015.1
20260901013503 87 4 0.0 1.0 0.00 0.00 0.00 62 1015.1
20260901013024 88 4 0.0 1.0 0.00 0.00 0.00 62 1015.2
20260901012503 88 0 0.0 0.0 0.00 0.00 0.00 62 1015.1
20260901012003 88 0 0.0 0.0 0.00 0.00 0.00 61 1015.2
20260901011503 88 0 0.0 0.0 0.00 0.00 0.00 60 1015.1
20260901011003 89 0 0.0 0.0 0.00 0.00 0.00 60 1015.1
20260901010524 89 27 0.0 1.0 0.00 0.00 0.00 59 1015.0
20260901010003 90 27 0.0 1.0 0.00 0.00 0.00 58 1015.0
20260901005503 90 67 0.0 1.0 0.00 0.00 0.00 58 1015.0
20260901005003 91 67 0.0 1.0 0.00 0.00 0.00 57 1015.0
20260901004503 91 18 0.0 1.0 0.00 0.00 0.00 56 1015.0
20260901004003 92 324 0.0 1.0 0.00 0.00 0.00 56 1014.9
20260901003503 92 46 0.0 2.0 0.00 0.00 0.00 55 1014.9
20260901003003 92 14 0.0 2.0 0.00 0.00 0.00 55 1014.9
20260901002503 92 350 0.0 1.0 0.00 0.00 0.00 54 1014.9
20260901002003 93 27 1.0 3.0 0.00 0.00 0.00 54 1014.8
20260901001503 93 61 1.0 3.0 0.00 0.00 0.00 53 1014.9
20260901001024 94 98 1.0 3.0 0.00 0.00 0.00 52 1014.8
20260901000503 94 95 1.0 3.0 0.00 0.00 0.00 50 1014.8
20260901000003 95 115 0.0 3.0 0.00 0.00 0.00 50 1014.8
20260831235503 95 90 1.0 5.0 0.00 0.00 0.00 50 1014.7
20260831235003 95 105 1.0 5.0 0.00 0.00 0.00 49 1014.8
20260831234503 95 126 1.0 5.0 0.00 0.00 0.00 48 1014.7
20260831234003 96 131 1.0 5.0 0.00 0.00 0.00 48 1014.8
20260831233503 96 152 2.0 6.0 0.00 0.00 0.00 48 1014.6
20260831233024 96 141 2.0 6.0 0.00 0.00 0.00 48 1014.7
20260831232503 97 153 1.0 4.0 0.00 0.00 0.00 48 1014.8
20260831232003 97 179 1.0 4.0 0.00 0.00 0.00 48 1014.6
20260831231503 98 159 1.0 5.0 0.00 0.00 0.00 45 1014.7
20260831231004 99 138 1.0 5.0 0.00 0.00 0.00 44 1014.7
20260831230504 99 65 1.0 4.0 0.00 0.00 0.00 43 1014.7
20260831230004 100 54 2.0 4.0 0.00 0.00 0.00 43 1014.6
20260831225504 100 72 2.0 5.0 0.00 0.00 0.00 43 1014.5
20260831225004 99 106 2.0 7.0 0.00 0.00 0.00 44 1014.6
20260831224504 99 122 2.0 7.0 0.00 0.00 0.00 44 1014.7
20260831224004 98 116 1.0 5.0 0.00 0.00 0.00 45 1014.6
20260831223504 98 148 2.0 6.0 0.00 0.00 0.00 45 1014.6
20260831223004 98 161 2.0 6.0 0.00 0.00 0.00 45 1014.7
20260831222504 98 134 2.0 4.0 0.00 0.00 0.00 47 1014.7
20260831222004 98 119 2.0 6.0 0.00 0.00 0.00 45 1014.7
20260831221504 98 126 1.0 6.0 0.00 0.00 0.00 47 1014.7
20260831221004 98 104 1.0 5.0 0.00 0.00 0.00 49 1014.8
20260831220504 97 122 1.0 5.0 0.00 0.00 0.00 48 1014.9
20260831220004 97 158 1.0 3.0 0.00 0.00 0.00 50 1014.9
20260831215504 96 151 1.0 3.0 0.00 0.00 0.00 49 1014.9
20260831215004 97 137 1.0 4.0 0.00 0.00 0.00 49 1015.0
20260831214504 97 155 1.0 4.0 0.00 0.00 0.00 50 1015.0
20260831214004 98 101 1.0 6.0 0.00 0.00 0.00 49 1015.0
20260831213504 99 110 2.0 11.0 0.00 0.00 0.00 47 1015.1
20260831213004 99 140 2.0 11.0 0.00 0.00 0.00 46 1015.1
20260831212504 99 177 2.0 5.0 0.00 0.00 0.00 48 1015.1
20260831212004 97 191 2.0 5.0 0.00 0.00 0.00 50 1015.2
20260831211504 96 188 1.0 5.0 0.00 0.00 0.00 52 1015.2
20260831211025 97 171 1.0 4.0 0.00 0.00 0.00 50 1015.3
20260831210504 97 167 2.0 7.0 0.00 0.00 0.00 49 1015.4
20260831210004 98 153 3.0 7.0 0.00 0.00 0.00 49 1015.4
20260831205504 99 14 2.0 5.0 0.00 0.00 0.00 47 1015.4
20260831205004 99 10 2.0 4.0 0.00 0.00 0.00 47 1015.4
20260831204525 97 355 1.0 3.0 0.00 0.00 0.00 49 1015.5
20260831204004 96 13 1.0 3.0 0.00 0.00 0.00 51 1015.6
20260831203504 96 142 1.0 3.0 0.00 0.00 0.00 51 1015.6
20260831203004 96 143 1.0 3.0 0.00 0.00 0.00 52 1015.7
20260831202504 95 175 1.0 4.0 0.00 0.00 0.00 53 1015.8
20260831202004 96 188 2.0 6.0 0.00 0.00 0.00 52 1016.0
20260831201504 96 182 2.0 6.0 0.00 0.00 0.00 51 1015.9
20260831201004 97 158 2.0 6.0 0.00 0.00 0.00 51 1016.1
20260831200504 98 173 3.0 9.0 0.00 0.00 0.00 49 1016.0
20260831200004 99 171 3.0 9.0 0.00 0.00 0.00 49 1016.2
20260831195504 98 62 2.0 5.0 0.00 0.00 0.00 49 1016.2
20260831195004 98 78 1.0 4.0 0.00 0.00 0.00 49 1016.2
20260831194504 96 209 1.0 3.0 0.00 0.00 0.00 56 1016.2
20260831194004 96 6 1.0 4.0 0.00 0.00 0.00 51 1016.3
20260831193504 95 21 2.0 4.0 0.00 0.00 0.00 53 1016.6
20260831193004 96 15 2.0 4.0 0.00 0.00 0.00 52 1016.7
20260831192504 96 269 1.0 4.0 0.00 0.00 0.00 52 1016.7
20260831192004 95 122 1.0 4.0 0.00 0.00 0.00 54 1016.7
20260831191504 95 60 1.0 2.0 0.00 0.00 0.00 55 1016.9
20260831191004 95 353 1.0 3.0 0.00 0.00 0.00 53 1017.0
20260831190504 95 34 1.0 4.0 0.00 0.00 0.00 53 1017.0
20260831190004 96 65 1.0 4.0 0.00 0.00 0.00 52 1017.1
20260831185504 96 118 2.0 6.0 0.00 0.00 0.00 52 1017.1
20260831185025 97 156 3.0 7.0 0.00 0.00 0.00 52 1017.1
20260831184504 97 147 3.0 7.0 0.00 0.00 0.00 53 1017.1
20260831184004 96 135 3.0 9.0 0.00 0.00 0.00 54 1017.2
20260831183504 95 122 2.0 9.0 0.00 0.00 0.00 55 1017.3
20260831183025 94 74 1.0 7.0 0.00 0.00 0.00 55 1017.4
20260831182504 93 154 1.0 3.0 0.00 0.00 0.00 57 1017.5
20260831182004 93 182 1.0 3.0 0.00 0.00 0.00 57 1017.4
20260831181525 93 223 2.0 3.0 0.00 0.00 0.00 56 1017.5
20260831181004 94 340 2.0 7.0 0.00 0.00 0.00 55 1017.6
20260831180525 94 340 3.0 7.0 0.00 0.00 0.00 55 1017.6
20260831180004 95 360 3.0 6.0 0.00 0.00 0.00 55 1017.7
20260831175504 95 13 2.0 6.0 0.00 0.00 0.00 55 1017.8
20260831175004 95 332 2.0 5.0 0.00 0.00 0.00 57 1017.9
20260831174504 94 335 4.0 8.0 0.00 0.00 0.00 57 1017.9
20260831174025 94 332 3.0 8.0 0.00 0.00 0.00 59 1017.9
20260831173525 93 326 4.0 12.0 0.00 0.00 0.00 60 1018.1
20260831173004 94 327 4.0 12.0 0.00 0.00 0.00 58 1018.2
20260831172504 94 357 3.0 8.0 0.00 0.00 0.00 58 1018.2
20260831172004 95 35 3.0 7.0 0.00 0.00 0.00 58 1018.3
20260831171504 94 326 3.0 7.0 0.00 0.00 0.00 58 1018.3
20260831171004 94 222 3.0 8.0 0.00 0.00 0.00 59 1018.3
20260831170504 93 149 2.0 8.0 0.00 0.00 0.00 61 1018.4
20260831170004 92 53 2.0 4.0 0.00 0.00 0.00 60 1018.7
20260831165504 93 96 2.0 6.0 0.00 0.00 0.00 58 1018.7
20260831165004 95 102 2.0 6.0 0.00 0.00 0.00 57 1018.7
20260831164504 94 128 2.0 7.0 0.00 0.00 0.00 60 1018.7
20260831164004 93 120 3.0 7.0 0.00 0.00 0.00 60 1018.8
20260831163504 92 335 2.0 5.0 0.00 0.00 0.00 61 1018.9
20260831163004 92 181 2.0 7.0 0.00 0.00 0.00 60 1018.9
20260831162504 92 162 2.0 7.0 0.00 0.00 0.00 61 1019.0
20260831162004 92 158 1.0 4.0 0.00 0.00 0.00 62 1019.0
20260831161504 92 192 1.0 4.0 0.00 0.00 0.00 63 1019.0
20260831161025 91 175 2.0 6.0 0.00 0.00 0.00 64 1019.0
20260831160504 90 149 3.0 6.0 0.00 0.00 0.00 63 1019.0
20260831160004 90 130 3.0 5.0 0.00 0.00 0.00 64 1019.0
20260831155525 91 102 2.0 4.0 0.00 0.00 0.00 63 1019.0
20260831155004 90 58 1.0 3.0 0.00 0.00 0.00 66 1019.1
20260831154504 90 162 1.0 5.0 0.00 0.00 0.00 67 1019.1
20260831154004 90 163 1.0 5.0 0.00 0.00 0.00 67 1019.0
20260831153504 89 104 1.0 3.0 0.00 0.00 0.00 70 1019.0
20260831153004 89 134 2.0 4.0 0.00 0.00 0.00 70 1019.0
20260831152504 88 149 2.0 5.0 0.00 0.00 0.00 70 1019.1
20260831152004 88 125 1.0 5.0 0.00 0.00 0.00 71 1019.0
20260831151504 87 10 1.0 4.0 0.00 0.00 0.00 73 1019.0
20260831151004 86 43 2.0 4.0 0.00 0.00 0.00 74 1019.0
20260831150504 86 114 1.0 3.0 0.00 0.00 0.00 75 1019.1
20260831150004 86 77 1.0 3.0 0.00 0.00 0.00 75 1019.0
20260831145525 86 1 2.0 4.0 0.00 0.00 0.00 75 1018.9
20260831145004 85 337 2.0 7.0 0.00 0.00 0.00 73 1019.0
20260831144504 85 349 2.0 7.0 0.00 0.00 0.00 74 1018.9
20260831144003 84 354 1.0 3.0 0.00 0.00 0.00 74 1018.9
20260831143503 84 354 1.0 3.0 0.00 0.00 0.00 76 1019.0
20260831143004 84 30 1.0 3.0 0.00 0.00 0.00 76 1019.0
20260831142504 83 123 1.0 4.0 0.00 0.00 0.00 76 1018.9
20260831142025 83 141 1.0 4.0 0.00 0.00 0.00 76 1018.9
20260831141504 82 0 0.0 0.0 0.00 0.00 0.00 75 1018.8
20260831141004 82 0 0.0 0.0 0.00 0.00 0.00 75 1018.8
20260831140503 81 0 0.0 0.0 0.00 0.00 0.00 74 1018.8
20260831140003 80 0 0.0 0.0 0.00 0.00 0.00 72 1018.8
20260831135504 79 0 0.0 0.0 0.00 0.00 0.00 67 1018.7
20260831135004 78 0 0.0 0.0 0.00 0.00 0.00 60 1018.7
20260831134503 78 0 0.0 0.0 0.00 0.00 0.00 55 1018.7
20260831134004 77 0 0.0 0.0 0.00 0.00 0.00 52 1018.7
20260831133504 77 0 0.0 0.0 0.00 0.00 0.00 50 1018.7
20260831133003 76 0 0.0 0.0 0.00 0.00 0.00 51 1018.7
20260831132524 76 0 0.0 0.0 0.00 0.00 0.00 51 1018.7
20260831132003 75 0 0.0 0.0 0.00 0.00 0.00 51 1018.6
20260831131503 75 0 0.0 0.0 0.00 0.00 0.00 50 1018.5
20260831131004 75 0 0.0 0.0 0.00 0.00 0.00 49 1018.4
20260831130503 75 0 0.0 0.0 0.00 0.00 0.00 49 1018.5
20260831130004 74 0 0.0 0.0 0.00 0.00 0.00 49 1018.4
20260831125504 74 0 0.0 0.0 0.00 0.00 0.00 48 1018.3
20260831125003 74 0 0.0 0.0 0.00 0.00 0.00 48 1018.2
20260831124504 74 0 0.0 0.0 0.00 0.00 0.00 48 1018.1
20260831124004 74 0 0.0 0.0 0.00 0.00 0.00 48 1018.1
20260831123503 74 0 0.0 0.0 0.00 0.00 0.00 48 1018.0
20260831123003 74 0 0.0 0.0 0.00 0.00 0.00 48 1018.0
20260831122503 74 0 0.0 0.0 0.00 0.00 0.00 48 1017.9
20260831122004 74 0 0.0 0.0 0.00 0.00 0.00 48 1017.9
20260831121504 74 0 0.0 0.0 0.00 0.00 0.00 48 1017.9
20260831121003 74 0 0.0 0.0 0.00 0.00 0.00 49 1017.9
20260831120503 74 0 0.0 0.0 0.00 0.00 0.00 50 1017.8
20260831120003 74 0 0.0 0.0 0.00 0.00 0.00 50 1017.6
20260831115525 74 0 0.0 0.0 0.00 0.00 0.00 51 1017.6
20260831115004 74 0 0.0 0.0 0.00 0.00 0.00 51 1017.5
20260831114504 74 0 0.0 0.0 0.00 0.00 0.00 51 1017.4
20260831114004 74 0 0.0 0.0 0.00 0.00 0.00 51 1017.4
20260831113504 74 0 0.0 0.0 0.00 0.00 0.00 52 1017.3
20260831113004 74 0 0.0 0.0 0.00 0.00 0.00 52 1017.2
20260831112525 74 0 0.0 0.0 0.00 0.00 0.00 53 1017.1
20260831112003 74 0 0.0 0.0 0.00 0.00 0.00 53 1017.0
20260831111504 74 0 0.0 0.0 0.00 0.00 0.00 54 1017.0
20260831111003 74 0 0.0 0.0 0.00 0.00 0.00 54 1017.0
20260831110503 74 0 0.0 0.0 0.00 0.00 0.00 53 1017.0
20260831110003 74 0 0.0 0.0 0.00 0.00 0.00 54 1017.0
20260831105503 74 0 0.0 0.0 0.00 0.00 0.00 55 1017.1
20260831105003 74 0 0.0 0.0 0.00 0.00 0.00 56 1017.0
20260831104525 74 0 0.0 0.0 0.00 0.00 0.00 56 1017.1
20260831104003 74 0 0.0 0.0 0.00 0.00 0.00 57 1017.0
20260831103503 74 0 0.0 0.0 0.00 0.00 0.00 57 1016.9
20260831103004 74 0 0.0 0.0 0.00 0.00 0.00 57 1016.9
20260831102524 74 0 0.0 0.0 0.00 0.00 0.00 58 1017.0
20260831102003 75 0 0.0 0.0 0.00 0.00 0.00 60 1017.0
20260831101504 75 0 0.0 0.0 0.00 0.00 0.00 61 1016.9
20260831101003 75 0 0.0 0.0 0.00 0.00 0.00 62 1017.0
20260831100504 75 0 0.0 0.0 0.00 0.00 0.00 62 1016.8
20260831100004 75 0 0.0 0.0 0.00 0.00 0.00 62 1016.8
20260831095504 75 0 0.0 0.0 0.00 0.00 0.00 63 1016.9
20260831095024 76 0 0.0 0.0 0.00 0.00 0.00 64 1016.9
20260831094504 76 0 0.0 0.0 0.00 0.00 0.00 65 1016.9
20260831094024 76 0 0.0 0.0 0.00 0.00 0.00 65 1016.8
20260831093524 76 0 0.0 0.0 0.00 0.00 0.00 66 1016.7
20260831093024 76 0 0.0 0.0 0.00 0.00 0.00 67 1016.8
20260831092503 76 0 0.0 0.0 0.00 0.00 0.00 68 1016.6
20260831092004 76 0 0.0 0.0 0.00 0.00 0.00 68 1016.6
20260831091525 76 0 0.0 0.0 0.00 0.00 0.00 69 1016.6
20260831091024 76 0 0.0 0.0 0.00 0.00 0.00 69 1016.6
20260831090503 76 0 0.0 0.0 0.00 0.00 0.00 69 1016.6
20260831090004 76 0 0.0 0.0 0.00 0.00 0.00 70 1016.6
20260831085503 76 0 0.0 0.0 0.00 0.00 0.00 70 1016.6
20260831085004 77 222 0.0 1.0 0.00 0.00 0.00 71 1016.6
20260831084503 77 222 0.0 1.0 0.00 0.00 0.00 71 1016.6
20260831084003 77 222 0.0 1.0 0.00 0.00 0.00 71 1016.7
20260831083504 77 0 0.0 0.0 0.00 0.00 0.00 72 1016.8
20260831083003 77 222 0.0 1.0 0.00 0.00 0.00 72 1016.7
20260831082503 77 222 0.0 1.0 0.00 0.00 0.00 73 1016.9
20260831082003 78 0 0.0 0.0 0.00 0.00 0.00 74 1016.7
20260831081504 78 0 0.0 0.0 0.00 0.00 0.00 75 1016.8
20260831081003 78 0 0.0 0.0 0.00 0.00 0.00 75 1016.9
20260831080524 78 0 0.0 0.0 0.00 0.00 0.00 75 1016.8
20260831080004 78 0 0.0 0.0 0.00 0.00 0.00 75 1016.7
20260831075503 78 0 0.0 0.0 0.00 0.00 0.00 75 1016.9
20260831075003 78 0 0.0 0.0 0.00 0.00 0.00 75 1016.9
20260831074503 78 222 0.0 1.0 0.00 0.00 0.00 75 1016.8
20260831074024 78 222 0.0 1.0 0.00 0.00 0.00 75 1016.9
20260831073524 78 222 0.0 1.0 0.00 0.00 0.00 75 1017.0
20260831073004 78 222 0.0 1.0 0.00 0.00 0.00 76 1017.1
20260831072503 78 215 0.0 1.0 0.00 0.00 0.00 76 1017.2
20260831072004 78 253 0.0 2.0 0.00 0.00 0.00 76 1017.1
20260831071504 78 259 0.0 2.0 0.00 0.00 0.00 76 1017.1
20260831071003 78 246 0.0 1.0 0.00 0.00 0.00 76 1017.1
20260831070503 78 0 0.0 0.0 0.00 0.00 0.00 77 1017.1